Flag for U.S.A. Weather past 2 weeks in Vevay, Indiana, U.S.A.

Now
27 °F

Clear.


Feels Like: 27 °F
Forecast: 22 / 54 °F
Wind: No wind

Location: Cincinnati / Northern Kentucky International Airport

Current Time: Mar 29, 2015 at 1:26:05 AM

Latest Report: Mar 29, 2015 at 12:52 AM


Visibility: 10 mi

Pressure: 30.37 "Hg

Humidity: 61%

Dew point: 15 °F

Location of VevayLocation

Historic Weather in Vevay — Graph

°F

Vevay temperature yesterday

Maximum temperature yesterday: 37 °F (at 5:52 PM)
Minimum temperature yesterday: 20 °F (at 5:52 AM)
Average temperature yesterday: 29 °F

Past Weeks' High & Low Weather Summary

 TemperatureHumidityPressure
High75 °F (Mar 16, 4:52 PM)100% (Mar 26, 6:52 AM)30.37 "Hg (Mar 26, 6:52 AM)
Low20 °F (Mar 28, 5:52 AM)23% (Mar 18, 3:52 PM)29.82 "Hg (Mar 26, 6:52 AM)
Average46 °F60%30.10 "Hg
* Reported Mar 13 11:52 PM — Mar 28 11:52 PM, Vevay, Weather by CustomWeather, © 2015

Note: Actual official high and low records may vary slightly from our data, if they occured in-between our weather recording intervals... More about our weather records

Advertising

Vevay weather history for previous 24 hours

 ConditionsComfort  
Time TempWeatherWind HumidityBarometerVisibility
11:52 PM
Sat, Mar 28
30 °FClear.6 mph49%30.37 "Hg10 mi
10:52 PM31 °FClear.6 mph43%30.36 "Hg10 mi
9:52 PM32 °FClear.6 mph41%30.34 "Hg10 mi
8:52 PM33 °FSunny.6 mph40%30.32 "Hg10 mi
7:52 PM34 °FSunny.7 mph35%30.31 "Hg10 mi
6:52 PM36 °FSunny.9 mph32%30.31 "Hg10 mi
5:52 PM37 °FSunny.10 mph34%30.29 "Hg10 mi
4:52 PM36 °FSunny.6 mph37%30.28 "Hg10 mi
3:52 PM36 °FPassing clouds.8 mph37%30.28 "Hg10 mi
2:52 PM34 °FPassing clouds.No wind38%30.29 "Hg10 mi
1:52 PM34 °FPassing clouds.14 mph44%30.30 "Hg10 mi
12:52 PM32 °FScattered clouds.10 mph43%30.30 "Hg10 mi
11:52 AM30 °FScattered clouds.9 mph49%30.29 "Hg10 mi
10:52 AM29 °FScattered clouds.10 mph54%30.29 "Hg10 mi
9:52 AM26 °FScattered clouds.6 mph66%30.27 "Hg10 mi
8:52 AM22 °FSunny.8 mph75%30.25 "Hg10 mi
7:52 AM20 °FClear.7 mph78%30.22 "Hg10 mi
6:52 AM20 °FClear.8 mph78%30.20 "Hg10 mi
5:52 AM20 °FClear.7 mph74%30.17 "Hg10 mi
4:52 AM21 °FClear.10 mph71%30.15 "Hg10 mi
3:52 AM22 °FClear.13 mph68%30.14 "Hg10 mi
2:52 AM24 °FClear.13 mph60%30.14 "Hg10 mi
1:52 AM25 °FPassing clouds.13 mph58%30.13 "Hg10 mi
Weather by CustomWeather, © 2015

See weather overviewHow to use our weather pages